Regional Weather Roundup
Issued by NWS

Home | Current Version | Previous Version | Text Only | Print | Product List | Glossary Off
Versions: 1 2 3 4 5 6 7 8 9 10 11 12 13 14 15 16 17 18 19 20 21 22 23 24 25 26 27 28 29 30 31 32 33 34 35 36 37 38 39 40 41 42 43 44 45 46 47 48 49 50

000
ASUS43 KMKX 201921
RWRWI

WISCONSIN REGIONAL WEATHER ROUNDUP
NATIONAL WEATHER SERVICE MILWAUKEE/SULLIVAN WI
200 PM CDT THU JUL 20 2017

NOTE: "FAIR" INDICATES FEW OR NO CLOUDS BELOW 12,000 FEET WITH NO
SIGNIFICANT WEATHER AND/OR OBSTRUCTIONS TO VISIBILITY.

WIZ001-002-006>008-014>016-023>028-202000-
NORTHWEST WISCONSIN

CITY           SKY/WX    TMP DP  RH WIND       PRES   REMARKS
SUPERIOR ARPT  NOT AVBL
ASHLAND        CLOUDY    83  65  54 VRB7      29.97F HX  85
HAYWARD        MOSUNNY   82  61  48 VRB3      30.01S HX  83
SIREN          SUNNY     83  64  52 W8        30.02S HX  84
CUMBERLAND     MOSUNNY   81  63  54 NW6       30.02F HX  82
RICE LAKE      MOSUNNY   82  67  61 SW6       30.03S HX  84
CHETEK         MOSUNNY   83  68  62 W7        30.02S HX  86
LADYSMITH      SUNNY     83  65  53 W8        30.03S HX  85
EAU CLAIRE     PTSUNNY   83  67  58 W6        30.00F HX  85
MENOMONIE      MOSUNNY   83  68  61 SW5       30.01F HX  86
NEW RICHMOND   CLOUDY    81  64  57 CALM      30.03S HX  82
OSCEOLA        CLOUDY    82  67  61 CALM      30.04F HX  84
$$

WIZ003>005-009-010-017-018-202000-
NORTH CENTRAL WISCONSIN

CITY           SKY/WX    TMP DP  RH WIND       PRES   REMARKS
MANITOWISH WTR SUNNY     82  58  44 NW13G20   29.99F HX  82
ARBOR VITAE    SUNNY     82  63  51 W6G18     29.99F HX  83
WOODRUFF       SUNNY     82  63  51 W6G18     29.99F HX  83
RHINELANDER    CLOUDY    83  63  50 W16       30.01F HX  84
EAGLE RIVER    PTSUNNY   81  59  46 NW13G18   29.99F HX  81
LAND O LAKES   PTSUNNY   83  58  41 W9        30.00F HX  83
PHILLIPS       CLOUDY    81  67  62 CALM      30.00F HX  84
TOMAHAWK         N/A     80  63  55 W12       30.01F HX  82
MEDFORD        CLOUDY    80  64  57 W8        30.01S HX  82
MERRILL        MOSUNNY   83  65  54 W9        30.00S HX  84
$$

WIZ029-030-035-036-043>047-202000-
CENTRAL WISCONSIN

CITY           SKY/WX    TMP DP  RH WIND       PRES   REMARKS
WAUSAU         SUNNY     82  66  58 W12       29.98F HX  84
MOSINEE        MOSUNNY   81  66  61 NW10G16   30.01F HX  83
MARSHFIELD     MOSUNNY   82  66  58 W9        30.00F HX  84
STEVENS POINT  MOSUNNY   80  65  60 NW9       29.99F HX  82
WAUPACA        MOSUNNY   85  67  54 W7        29.97S HX  88
WAUTOMA        SUNNY     85  70  60 NW10        N/A  HX  89
WISC RAPIDS    CLOUDY    82  68  62 NW10      30.00F HX  85
CAMP DOUGLAS   MOSUNNY   84  73  67 W8        29.99F HX  90
$$

WIZ011>013-019>022-031-037>040-048>050-202000-
NORTHEAST WISCONSIN

CITY           SKY/WX    TMP DP  RH WIND       PRES   REMARKS
ANTIGO         SUNNY     81  64  55 NW10G18   30.01S HX  83
SHAWANO        MOSUNNY   85  66  52 W8G17     29.95F HX  87
OCONTO         SUNNY     83  67  58 W8        29.93F HX  85
STURGEON BAY     N/A     79  67  66 W15       29.94F HX  81
GREEN BAY      SUNNY     84  71  65 NW12      29.95S HX  89
MANITOWOC      SUNNY     84  69  60 NW12      29.94F HX  88
APPLETON       MOSUNNY   82  64  54 NW12G17   29.95F HX  84
CLINTONVILLE   MOSUNNY   82  64  54 NW9       29.95F HX  84
OSHKOSH        SUNNY     84  70  62 NW13      29.95F HX  88
$$

WIZ032>034-041-042-053>061-202000-
SOUTHWEST WISCONSIN

CITY           SKY/WX    TMP DP  RH WIND       PRES   REMARKS
LA CROSSE      MOSUNNY   87  72  60 NW6       29.99S HX  93
SPARTA         MOSUNNY   82  69  65 W7        30.01R HX  85
VIROQUA        MOSUNNY   82  73  72 NW6       30.02S HX  88
BOSCOBEL       SUNNY     88  71  57 NW6       29.98S HX  94
PRAIRIE DU CHI CLOUDY    82  71  68 N7        29.98S HX  87
PLATTEVILLE    CLOUDY    81  77  90 NW7       29.99F HX  88
$$

WIZ056-057-062-063-064-067-068-202000-
SOUTH CENTRAL WISCONSIN

CITY           SKY/WX    TMP DP  RH WIND       PRES   REMARKS
REEDSBURG      MOSUNNY   83  71  68 N7        29.98S HX  87
BARABOO/DELLS  MOSUNNY   86  67  53 W6        29.99S HX  88
LONE ROCK      SUNNY     86  72  62 NW7       29.97F HX  92
MINERAL POINT  CLOUDY    84  77  79 NW6       29.99F HX  94
MADISON        PTSUNNY   84  72  67 VRB6      29.97F HX  89
MIDDLETON      SUNNY     85  72  63 NW7       29.99S HX  91
WATERTOWN      MOSUNNY   83  74  74 NW7       29.97F HX  89
MONROE         MOSUNNY   84  73  70 NW6       29.97F HX  91
JANESVILLE     PTSUNNY   86  75  70 W8        29.95F HX  95
$$

WIZ051-052-058>065-066-070>072-202000-
SOUTHEAST WISCONSIN

CITY           SKY/WX    TMP DP  RH WIND       PRES   REMARKS
MILWAUKEE      MOSUNNY   81  70  69 E8        29.96S HX  84
WAUKESHA       MOSUNNY   81  70  69 W10       29.98F HX  84
MILWAUKEE/TIMM MOSUNNY   82  66  57 NW9       29.97F HX  85
RACINE         SUNNY     80  72  76 E8        29.97S HX  84
KENOSHA        MOSUNNY   86  72  62 NW10G17   29.96S HX  92
FOND DU LAC    MOSUNNY   83  69  62 NW6       29.96F HX  86
SHEBOYGAN      MOSUNNY   83  72  69 NW6       29.96S HX  88
WEST BEND      CLOUDY    81  70  69 W8        29.97S HX  84
JUNEAU         CLOUDY    80  71  73 W5        29.98F HX  83
$$

LSZ147-162-202000-
LAKE SUPERIOR

STATION/POSITION TIME  TEMP    WIND        PRES    WAVE
                       AIR SEA DIR/SP/G            HT/PER
                 (UTC) (F)     (DEG/KT/KT) (MB)    (FT/S)
W MID LAKE BUOY  1850   53 47  230/ 10/ 12 1014.4R   1/ 3
DEVILS ISLAND    1900   70     230/  9/ 13 1014.3F
SAXON HARBOR     1840   80      60/  3/  4 1014.9F
$$

LMZ867-665-643>646-202000-
LAKE MICHIGAN

STATION/POSITION TIME  TEMP    WIND        PRES    WAVE
                       AIR SEA DIR/SP/G            HT/PER
                 (UTC) (F)     (DEG/KT/KT) (MB)    (FT/S)
CHAMBERS ISLAND  1840   80     220/  6/ 10 1012.9F
S GREEN BAY BUOY 1900   76 73  300/  8/ 10 1013.6F
N MID LAKE BUOY  1850   67 65  200/  8/  8 1013.9F   2/ 6
NORTHPORT PIER   1840   79     260/  4/ 10 1013.2S
KEWAUNEE LAKESHO 1854   83     300/  6/ 12 1013.2F
SHEBOYGAN LAKESH 1900   70     160/ 11/ 11 1013.7R
PORT WASHINGTON  1840   74     170/  5/  6 1015.6S
ATWATER BUOY     1809   70 69   70/  8/  8 1014.6F
MILWAUKEE LAKESH 1900   71      90/  6/  8   N/A
S MID LAKE BUOY  1850   71 71   90/  4/  4 1014.7F   2/ 5
KENOSHA   LAKESH 1900   71      70/  5/ 11 1014.2
$$

TC  - TEMPERATURE IN CELSIUS
VSB - VISIBILITY IN STATUTE MILES
WCI - WIND CHILL INDEX
HX  - HEAT INDEX





USA.gov is the U.S. government's official web portal to all federal, state and local government web resources and services.